Regional Weather Roundup
Issued by NWS

Home | Current Version | Previous Version | Text Only | Print | Product List | Glossary On
Versions: 1 2 3 4 5 6 7 8 9 10 11 12 13 14 15 16 17 18 19 20 21 22 23 24 25 26 27 28 29 30 31 32 33 34 35 36 37 38 39 40 41 42 43 44 45 46 47 48 49 50
747
ASUS44 KJAN 191003
RWRMS

MISSISSIPPI HOURLY WEATHER ROUNDUP
NATIONAL WEATHER SERVICE JACKSON MS
500 AM CDT SAT APR 19 2014

NOTE: "FAIR: INDICATES FEW OR NO CLOUDS BELOW 12,000 FEET WITH NO
SIGNIFICANT WEATHER AND/OR OBSTRUCTIONS TO VISIBILITY.

MSZ001>002-007>008-010>013-018>021-025>028-034>036-191100-
NORTHWEST MISSISSIPPI

CITY           SKY/WX    TMP DP  RH WIND       PRES   REMARKS
CLARKSDALE       N/A     52  52 100 CALM      30.18S
CLEVELAND      FAIR      53  53  99 CALM      30.16S
GREENWOOD      CLEAR     51  49  92 CALM      30.15F
GREENVILLE     CLEAR     51  50  96 W3        30.16R
GRENADA          N/A     46  46 100 CALM      30.16F
OLIVE BRANCH   CLEAR     52  52 100 CALM      30.18F
OXFORD         FAIR      46  45  93 CALM      30.19S
TUNICA         SUNNY     50  50 100 CALM      30.18S FOG
$$

MSZ003>006-009-014>017-022>024-029>033-037>039-191100-
NORTHEAST MISSISSIPPI

CITY           SKY/WX    TMP DP  RH WIND       PRES   REMARKS
BELMONT        FAIR      48  47  99 CALM      30.16S
COLUMBUS AFB   FOG       46  46 100 NW3       30.15S VSB 1
CORINTH        FAIR      48  46  93 CALM      30.17S FOG
GOLDN TRIANGLE CLEAR     50  45  81 NW3       30.17S VSB 1
STARKVILLE     FAIR      45  45 100 CALM      30.15F
TUPELO         CLEAR     49  47  93 NE5       30.16S
$$

MSZ040-058-191100-
CENTRAL MISSISSIPPI

CITY           SKY/WX    TMP DP  RH WIND       PRES   REMARKS
JACKSON INTL   CLEAR     48  47  96 CALM      30.13F
JACKSON HAWKNS CLEAR     53  50  89 CALM      30.13F
MERIDIAN KEY   PTCLDY    49  48  97 CALM      30.14S FOG
MERIDIAN NAS   CLEAR     50  48  93 NW6       30.13F
RAYMOND        FAIR      46  41  81 NW3       30.14R HAZE
VICKSBURG      CLEAR     56  54  93 CALM      30.15S
$$

MSZ059>079-191100-
SOUTH MISSISSIPPI

CITY           SKY/WX    TMP DP  RH WIND       PRES   REMARKS
BROOKHAVEN     FAIR      50  50 100 CALM      30.15S FOG
COLUMBIA       FAIR      52  50  93 MISG      30.09F
HATTIESBURG    CLEAR     53  51  93 N6        30.11F
MCCOMB         CLEAR     55  50  83 NE5       30.12S
NATCHEZ        CLEAR     52  50  93 CALM      30.15R
PINE BELT      CLEAR     52  48  87 N10       30.11F
$$

MSZ080>082-191100-
COASTAL MISSISSIPPI

CITY           SKY/WX    TMP DP  RH WIND       PRES   REMARKS
BILOXI         CLEAR     55  52  89 N12       30.08S
PASCAGOULA     CLEAR     54  52  93 N8        30.07S
GULFPORT       CLEAR     58  51  78 NE13      30.07F
$$



USA.gov is the U.S. government's official web portal to all federal, state and local government web resources and services.